Le nostre stazioni meteo in Italia

Pubblicità
Il mio iltempo24.it
Kleine Brogel, Belgio (6479): Temperatura & dewpoint: 14.08.2017 06:00:00 - 20.08.2017 06:00:00 (CEST)Kleine Brogel, Belgio (6479): velocità del vento & gusts: 14.08.2017 06:00:00 - 20.08.2017 06:00:00 (CEST)Kleine Brogel, Belgio (6479): direzione del vento: 14.08.2017 06:00:00 - 20.08.2017 06:00:00 (CEST)Kleine Brogel, Belgio (6479): reduced air pressure: 14.08.2017 06:00:00 - 20.08.2017 06:00:00 (CEST)Kleine Brogel, Belgio (6479): visibility: 14.08.2017 06:00:00 - 20.08.2017 06:00:00 (CEST)
Data & Tempo tt [°C] td [°C] ff [km/h] ff [kn] fx [km/h] fx [kn] dd ppp [hPa] vv [km]
20.08.2017 06:00:00 10,3 10,1 7 4 11 6 SO 1021,7 9
20.08.2017 05:00:00 10,5 10,0 4 2 - - - 1021,6 11
20.08.2017 04:00:00 10,8 10,1 7 4 11 6 SSO 1021,1 15
20.08.2017 03:00:00 11,3 10,2 7 4 14 8 OSO 1020,8 19
20.08.2017 02:00:00 12,5 10,4 11 6 - - SO 1020,7 20
20.08.2017 01:00:00 12,8 10,3 11 6 14 8 SO 1020,6 20
20.08.2017 00:00:00 13,3 10,3 7 4 18 10 SO 1020,5 20
19.08.2017 23:00:00 13,6 10,6 11 6 - - SO 1020,3 20
19.08.2017 22:00:00 14,3 11,1 11 6 11 6 SO 1020,2 20
19.08.2017 21:00:00 15,3 12,9 7 4 11 6 SO 1019,6 20
19.08.2017 20:00:00 16,0 14,4 4 2 - - - 1019,2 20
19.08.2017 19:00:00 16,7 13,9 11 6 18 10 SO 1018,8 20
19.08.2017 18:00:00 15,3 13,7 11 6 18 10 SO 1018,8 20
19.08.2017 17:00:00 15,0 14,0 11 6 - - SO 1018,7 20
19.08.2017 16:00:00 16,0 14,0 14 8 22 12 OSO 1018,3 20
19.08.2017 15:00:00 14,9 12,9 21 11 29 16 O 1018,1 6
19.08.2017 14:00:00 17,9 11,3 14 8 - - OSO 1017,6 20
19.08.2017 13:00:00 17,5 10,9 25 14 36 19 OSO 1017,2 20
19.08.2017 12:00:00 17,9 11,9 25 14 43 23 OSO 1016,8 19
19.08.2017 11:00:00 15,3 11,7 22 12 - - SO 1016,8 20
19.08.2017 10:00:00 14,3 11,9 22 12 36 19 SO 1016,5 20
19.08.2017 09:00:00 12,6 11,4 16 9 29 16 SO 1016,2 10
19.08.2017 08:00:00 12,5 10,6 18 10 - - SO 1015,7 20
19.08.2017 07:00:00 11,8 10,2 14 8 25 14 SSO 1015,3 20
19.08.2017 06:00:00 11,3 10,2 14 8 22 12 SSO 1015,1 20
19.08.2017 05:00:00 11,3 10,3 11 6 - - SSO 1015,0 20
19.08.2017 04:00:00 11,3 10,5 11 6 18 10 SSO 1015,2 20
19.08.2017 03:00:00 11,6 10,4 11 6 22 12 SSO 1015,2 20
19.08.2017 02:00:00 12,0 10,4 14 8 - - SO 1015,0 20
19.08.2017 01:00:00 12,1 10,7 11 6 14 8 SO 1014,7 20
19.08.2017 00:00:00 12,3 11,4 4 2 11 6 - 1014,7 20
18.08.2017 23:00:00 12,8 11,9 7 4 - - SO 1014,2 20
18.08.2017 22:00:00 13,3 12,2 11 6 25 14 SO 1013,7 20
18.08.2017 21:00:00 15,1 14,6 11 6 50 27 SO 1013,0 10
18.08.2017 20:00:00 18,3 15,3 9 5 - - SSO 1011,7 10
18.08.2017 19:00:00 18,9 15,7 11 6 25 14 SSO 1011,7 20
18.08.2017 18:00:00 19,4 15,4 11 6 22 12 SO 1012,1 20
18.08.2017 17:00:00 17,8 15,2 14 8 - - SO 1012,2 15
18.08.2017 16:00:00 16,5 15,5 15 8 29 16 SO 1012,5 10
18.08.2017 15:00:00 16,7 15,6 14 8 40 21 O 1012,8 11
18.08.2017 14:00:00 20,2 16,6 18 10 - - SO 1012,2 15
18.08.2017 13:00:00 20,5 17,7 16 9 25 14 SSO 1012,2 10
18.08.2017 12:00:00 18,5 17,5 7 4 14 8 S 1012,5 12
18.08.2017 11:00:00 17,5 16,9 4 2 - - - 1013,2 12
18.08.2017 10:00:00 16,6 16,3 7 4 14 8 SO 1013,7 5
18.08.2017 09:00:00 17,0 16,0 7 4 11 6 SSO 1013,7 15
18.08.2017 08:00:00 16,7 16,1 7 4 - - SSO 1013,8 15
18.08.2017 07:00:00 16,1 15,5 4 2 14 8 - 1013,3 15
18.08.2017 06:00:00 16,7 16,1 5 3 14 8 S 1013,7 10
18.08.2017 05:00:00 16,6 15,8 7 4 - - SSO 1013,8 19
18.08.2017 04:00:00 17,2 15,7 7 4 11 6 OSO 1014,0 14
18.08.2017 03:00:00 16,5 15,7 4 2 11 6 - 1014,2 20
18.08.2017 02:00:00 17,2 16,3 7 4 - - SO 1014,8 20
18.08.2017 01:00:00 17,3 16,2 11 6 22 12 SO 1015,0 20
18.08.2017 00:00:00 17,8 17,0 13 7 22 12 SSO 1015,1 10
17.08.2017 23:00:00 17,8 17,1 7 4 - - SSO 1015,1 19
17.08.2017 22:00:00 18,7 17,2 11 6 22 12 SSO 1015,2 20
17.08.2017 21:00:00 19,0 17,4 11 6 25 14 SSO 1015,1 20
17.08.2017 20:00:00 19,5 17,6 11 6 - - SSO 1015,0 20
17.08.2017 19:00:00 19,2 17,4 14 8 25 14 SSO 1015,2 20
17.08.2017 18:00:00 - - - - - - - - -
17.08.2017 17:00:00 - - - - - - - - -
17.08.2017 16:00:00 20,4 16,2 21 11 36 19 SO 1015,5 10
17.08.2017 15:00:00 20,0 16,0 22 12 40 21 SO 1015,5 15
17.08.2017 14:00:00 19,5 15,6 29 16 - - OSO 1015,5 10
17.08.2017 13:00:00 21,7 14,4 21 11 36 19 SO 1014,7 10
17.08.2017 12:00:00 21,7 14,7 18 10 29 16 SSO 1014,7 15
17.08.2017 11:00:00 20,7 15,4 11 6 - - SSO 1015,2 20
17.08.2017 10:00:00 19,6 15,4 11 6 22 12 SSO 1015,3 20
17.08.2017 09:00:00 18,7 14,8 11 6 18 10 SSO 1015,7 20
17.08.2017 08:00:00 17,7 14,6 7 4 - - S 1016,0 20
17.08.2017 07:00:00 16,3 14,9 4 2 11 6 - 1016,1 15
17.08.2017 06:00:00 15,1 14,5 4 2 7 4 - 1016,5 10
17.08.2017 05:00:00 14,0 13,5 4 2 - - - 1017,2 9
17.08.2017 04:00:00 13,9 13,4 2 1 7 4 - 1017,8 6
17.08.2017 03:00:00 14,1 13,7 4 2 4 2 - 1018,0 1,4
17.08.2017 02:00:00 14,8 14,4 4 2 - - - 1018,6 3,6
17.08.2017 01:00:00 16,3 15,2 4 2 7 4 - 1018,8 8
17.08.2017 00:00:00 16,4 15,4 4 2 4 2 - 1019,2 8
16.08.2017 23:00:00 17,0 15,4 2 1 - - - 1019,7 7
16.08.2017 22:00:00 18,3 15,4 4 2 4 2 - 1020,3 20
16.08.2017 21:00:00 19,8 15,3 4 2 4 2 - 1019,7 20
16.08.2017 20:00:00 21,7 15,2 4 2 - - - 1019,8 20
16.08.2017 19:00:00 22,5 14,8 4 2 7 4 - 1019,7 20
16.08.2017 18:00:00 23,1 13,5 4 2 7 4 - 1020,2 20
16.08.2017 17:00:00 22,8 14,7 4 2 - - - 1020,1 20
16.08.2017 16:00:00 22,8 13,4 4 2 14 8 - 1020,6 20
16.08.2017 15:00:00 22,9 14,5 4 2 14 8 - 1021,0 15
16.08.2017 14:00:00 23,5 14,5 4 2 - - - 1021,2 15
16.08.2017 13:00:00 22,0 14,5 7 4 14 8 SSO 1021,6 15
16.08.2017 12:00:00 21,8 15,5 4 2 14 8 - 1021,8 15
16.08.2017 11:00:00 20,7 16,0 5 3 - - SO 1022,1 10
16.08.2017 10:00:00 19,8 16,0 7 4 11 6 SSO 1022,0 15
16.08.2017 09:00:00 17,9 16,0 4 2 7 4 - 1021,7 7
16.08.2017 08:00:00 13,4 13,4 2 1 - - - 1021,6 3,5
16.08.2017 07:00:00 12,3 12,3 4 2 7 4 - 1021,2 1,5
16.08.2017 06:00:00 12,4 12,3 4 2 4 2 - 1020,8 0,2
16.08.2017 05:00:00 12,8 12,7 0 0 - - N 1020,7 0,1
16.08.2017 04:00:00 13,0 12,9 4 2 4 2 - 1020,5 -
16.08.2017 03:00:00 14,5 14,2 4 2 7 4 - 1020,0 1,0
16.08.2017 02:00:00 15,1 14,7 4 2 - - - 1020,0 1,1
16.08.2017 01:00:00 16,7 15,9 7 4 11 6 SO 1020,0 6
16.08.2017 00:00:00 17,3 16,5 4 2 7 4 - 1019,3 10
15.08.2017 23:00:00 17,6 16,5 4 2 - - - 1018,3 12
15.08.2017 22:00:00 18,6 17,0 7 4 11 6 O 1018,1 17
15.08.2017 21:00:00 19,7 17,3 9 5 29 16 O 1016,8 10
15.08.2017 20:00:00 21,2 18,5 14 8 - - SO 1016,1 20
15.08.2017 19:00:00 22,0 18,6 14 8 25 14 OSO 1015,2 20
15.08.2017 18:00:00 21,0 18,3 14 8 25 14 OSO 1015,1 20
15.08.2017 17:00:00 20,7 19,3 14 8 - - SO 1014,7 20
15.08.2017 16:00:00 21,7 17,7 11 6 25 14 SSO 1014,6 18
15.08.2017 15:00:00 22,4 17,1 18 10 36 19 SO 1014,5 20
15.08.2017 14:00:00 22,7 17,9 4 2 - - - 1013,7 20
15.08.2017 13:00:00 23,3 17,8 7 4 14 8 SE 1013,6 20
15.08.2017 12:00:00 18,7 16,8 7 4 18 10 - 1013,7 20
15.08.2017 11:00:00 16,6 16,3 5 3 - - NO 1015,7 10
15.08.2017 10:00:00 17,1 14,9 4 2 7 4 - 1016,1 20
15.08.2017 09:00:00 - - - - - - - - -
15.08.2017 08:00:00 - - - - - - - - -
15.08.2017 07:00:00 - - - - - - - - -
15.08.2017 06:00:00 - - - - - - - - -
15.08.2017 05:00:00 - - - - - - - - -
15.08.2017 04:00:00 - - - - - - - - -
15.08.2017 03:00:00 - - - - - - - - -
15.08.2017 02:00:00 14,8 13,9 2 1 - - - 1016,0 10
15.08.2017 01:00:00 16,3 15,1 4 2 11 6 - 1016,2 8
15.08.2017 00:00:00 16,6 14,9 4 2 4 2 - 1016,3 10
14.08.2017 23:00:00 17,8 15,2 4 2 - - - 1016,5 19
14.08.2017 22:00:00 18,4 15,3 4 2 0 0 - 1016,6 20
14.08.2017 21:00:00 20,7 14,9 4 2 7 4 - 1016,3 20
14.08.2017 20:00:00 23,7 14,4 7 4 - - - 1016,2 20
14.08.2017 19:00:00 25,0 13,8 7 4 14 8 ENE 1016,5 20
14.08.2017 18:00:00 - - - - - - - - -
14.08.2017 17:00:00 25,2 12,8 11 6 - - E 1017,2 15
14.08.2017 16:00:00 25,2 12,9 4 2 18 10 - 1017,7 15
14.08.2017 15:00:00 24,2 13,2 4 2 18 10 - 1018,3 15
14.08.2017 14:00:00 23,1 13,0 7 4 - - SE 1019,1 15
14.08.2017 13:00:00 22,5 13,9 4 2 11 6 - 1019,6 15
14.08.2017 12:00:00 22,2 14,4 4 2 14 8 - 1019,8 15
14.08.2017 11:00:00 20,0 14,6 4 2 - - - 1020,2 15
14.08.2017 10:00:00 16,9 14,0 7 4 11 6 E 1020,5 15
14.08.2017 09:00:00 15,6 14,0 5 3 7 4 ENE 1020,7 10
14.08.2017 08:00:00 13,7 13,0 4 2 - - - 1020,7 15
14.08.2017 07:00:00 11,6 11,3 4 2 4 2 - 1020,7 8
14.08.2017 06:00:00 11,1 10,6 4 2 4 2 - 1020,7 12

tt = Temperatura
td = dewpoint
ff = velocità del vento
fx = gusts
dd = direzione del vento
ppp = reduced air pressure
vv = visibility

Stazioni seguenti

WeatherPro
AMSI
MeteoEarth